User: anonymous   Login
Location: Whitin Observatory
(42.2950°N, 71.3033°W)
Time: 20:01:21
(UTC-05:00)
Language:

LightSail 2 - Orbit

View from above orbital plane
View from above orbital plane
View from above satellite
View from above satellite

Ground track
Ground track

The orbit data is extracted from the following two-line orbital elements,

1 44420U 19036AC  19326.32503410  .00003273  00000-0  71516-3 0  9990
2 44420  24.0096 340.8295 0021703  40.4202 319.8016 14.53687494 19978
Epoch (UTC): 22 November 2019 07:48:02
Eccentricity: 0.0021703
inclination: 24.0096°
perigee height: 698 km
apogee height: 729 km
right ascension of ascending node: 340.8295°
argument of perigee: 40.4202°
revolutions per day: 14.53687494
mean anomaly at epoch: 319.8016°
orbit number at epoch: 1997

The dashed part of the orbit path shows where the satellite is in the earth's shadow,  

DLR